FW4365 Weather Reports


Display with metric or nautical units.
time (UTC)temp
F
wind
direction
speed
MPH
gust
MPH
rain 1hr
in
rain 24hr
in
rain mn
in
humidity
%
barometer
mb
20260504044502 50 63 0.0 1.0 0.00 0.00 0.00 57 1016.9
20260504043056 51 64 0.0 2.0 0.00 0.00 0.00 58 1016.8
20260504041510 50 63 1.0 3.0 0.00 0.00 0.00 62 1016.8
20260504040056 49 75 0.0 2.0 0.00 0.00 0.00 67 1016.7
20260504034516 48 75 0.0 1.0 0.00 0.00 0.00 68 1016.5
20260504033101 49 75 0.0 1.0 0.00 0.00 0.00 66 1016.3
20260504031524 49 75 0.0 1.0 0.00 0.00 0.00 66 1016.2
20260504030124 49 75 0.0 0.0 0.00 0.00 0.00 65 1016.2
20260504024542 50 75 0.0 0.0 0.00 0.00 0.00 64 1016.2
20260504023002 50 75 0.0 0.0 0.00 0.00 0.00 64 1016.1
20260504021545 50 75 0.0 0.0 0.00 0.00 0.00 61 1016.1
20260504020134 51 75 0.0 0.0 0.00 0.00 0.00 59 1016.1
20260504014603 51 75 0.0 0.0 0.00 0.00 0.00 56 1016.1
20260504013018 52 75 0.0 0.0 0.00 0.00 0.00 52 1016.0
20260504011612 53 75 0.0 1.0 0.00 0.00 0.00 50 1015.8
20260504010031 54 75 0.0 1.0 0.00 0.00 0.00 48 1015.8
20260504004521 55 75 0.0 1.0 0.00 0.00 0.00 43 1015.5
20260504003119 57 75 0.0 2.0 0.00 0.00 0.00 38 1015.4
20260504001525 58 75 0.0 3.0 0.00 0.00 0.00 34 1015.2
20260504000132 59 75 2.0 7.0 0.00 0.00 0.00 33 1015.1
20260503234548 60 85 1.0 3.0 0.00 0.00 0.00 32 1015.0
20260503233027 61 72 4.0 8.0 0.00 0.00 0.00 31 1014.8
20260503231622 61 81 1.0 6.0 0.00 0.00 0.00 31 1014.7
20260503230037 62 82 3.0 10.0 0.00 0.00 0.00 30 1014.8
20260503224611 62 91 4.0 10.0 0.00 0.00 0.00 29 1014.9
20260503223027 63 102 1.0 14.0 0.00 0.00 0.00 29 1014.6
20260503221631 63 84 4.0 15.0 0.00 0.00 0.00 29 1014.7
20260503220050 63 77 4.0 12.0 0.00 0.00 0.00 29 1014.9
20260503214511 63 94 2.0 10.0 0.00 0.00 0.00 28 1014.9
20260503213111 63 98 3.0 9.0 0.00 0.00 0.00 29 1014.7
20260503211526 62 53 2.0 10.0 0.00 0.00 0.00 31 1014.8
20260503210127 62 81 3.0 11.0 0.00 0.00 0.00 31 1014.8
20260503204539 62 154 3.0 14.0 0.00 0.00 0.00 33 1014.9
20260503203135 61 74 5.0 20.0 0.00 0.00 0.00 31 1014.9
20260503201552 61 89 4.0 14.0 0.00 0.00 0.00 32 1015.2
20260503200013 60 46 10.0 19.0 0.00 0.00 0.00 31 1015.3
20260503194604 60 107 3.0 13.0 0.00 0.00 0.00 33 1015.5
20260503193019 60 53 6.0 15.0 0.00 0.00 0.00 33 1015.6
20260503191609 59 25 8.0 16.0 0.00 0.00 0.00 33 1016.0
20260503190016 58 107 5.0 14.0 0.00 0.00 0.00 35 1016.1
20260503183017 57 92 4.0 13.0 0.00 0.00 0.00 35 1016.6
20260503181614 57 113 4.0 13.0 0.00 0.00 0.00 36 1016.7
20260503180019 57 119 6.0 15.0 0.00 0.00 0.00 37 1016.7
20260503174610 57 108 4.0 10.0 0.00 0.00 0.00 34 1016.8
20260503173025 57 92 6.0 19.0 0.00 0.00 0.00 34 1016.8
20260503171610 56 47 6.0 16.0 0.00 0.00 0.00 34 1017.0
20260503140116 50 140 4.0 13.0 0.00 0.00 0.00 45 1017.8
20260503130144 48 160 7.0 15.0 0.00 0.00 0.00 51 1017.8
20260503081534 44 99 2.0 9.0 0.00 0.00 0.00 65 1014.9
20260503080120 45 79 1.0 9.0 0.00 0.00 0.00 64 1014.8
20260503071521 45 80 2.0 6.0 0.00 0.00 0.00 64 1014.3
20260503070109 45 68 2.0 5.0 0.00 0.00 0.00 63 1014.2